sat.trackr.live / text

‹ back to catalog

EAGLEEYE

NORAD 60508 · 2024-149AS

PAYLOAD ACTIVE UNKNOWN

§ Identity

Operator
Country
POL
Launch date
2024-08-16
Launch site
AFWTR
Launch vehicle
Mass (kg)
RCS (m²)

External: N2YO · Heavens-Above · Gunter

§ Orbital elements

Epoch: 2026-09-22T18:34:04.813248Z

Period
88.09 min
Inclination
97.3391°
Eccentricity
0.0012598
Mean motion
16.34601968 rev/d
Perigee alt
171.9 km
Apogee alt
188.5 km
Semi-major
6,558.3 km
B*
7.6560e-4
RAAN
6.7298°
Arg perigee
274.3837°
Mean anomaly
85.6020°
Rev number
11,840

§ Raw data

EAGLEEYE1 60508U 24149AS  26265.77366682  .05346259  24782-5  76560-3 0  99942 60508  97.3391   6.7298 0012598 274.3837  85.6020 16.34601968118403

JSON: /api/v1/satellites/60508 · /tle

For live sub-satellite position, see the globe view (requires WebGL).

§ Visibility from observer

Set your observer location to see the next 7 days of passes ≥ 10°. The values pass through the URL so the page stays shareable.

No JS? Fill the form by hand. The geolocation button needs JavaScript.

§ Radio — SatNOGS DB

ModeDescriptionDownlinkUplink
FM Mode 8.200 GHz
FM Mode S - Downlink 2.268 GHz

2 transmitters · refreshed weekly from db.satnogs.org